GFSSGP_sfc_temp_000.txt.gz
Temp
61 62 61 64 56 49 44 49 54 54 57 60 63 61 56 56 56 50 68 69 65 66 67 69 72 73 74 75 75 74 75 75 74 74 74 74 75 75 74 72 72 73 74 74 74 75 76 75 74
61 66 65 56 48 41 45 54 54 55 59 62 63 61 58 56 61 62 63 67 67 67 67 69 72 73 73 74 74 75 75 75 74 74 74 74 74 74 74 72 71 72 73 73 74 75 75 74 72
63 66 60 50 43 43 46 51 53 57 60 61 59 62 60 57 64 65 67 68 67 66 67 69 71 72 72 73 73 73 73 73 73 73 74 73 74 74 73 71 71 71 72 73 74 75 75 73 72
65 63 58 50 42 48 49 54 58 58 60 63 60 57 62 65 66 67 68 68 65 64 65 68 70 71 72 72 72 72 72 72 72 72 72 73 73 73 72 70 70 71 72 73 73 74 72 71 70
60 56 49 47 46 52 55 57 59 58 58 57 59 54 58 64 67 68 66 67 64 63 65 67 69 70 72 72 72 72 71 71 71 72 72 72 72 71 70 70 70 70 71 71 71 70 69 69 69
59 55 45 42 45 53 56 56 58 57 58 59 58 57 57 65 65 66 67 64 65 64 65 66 70 70 70 71 71 70 70 70 70 71 71 71 70 70 70 69 69 70 70 70 69 68 68 68 68
56 49 42 43 47 51 55 58 56 56 55 55 61 55 57 62 65 67 65 64 64 65 64 64 65 68 69 68 68 68 69 69 69 69 69 68 68 68 68 68 69 69 69 68 68 67 67 68 67
55 52 42 42 47 47 55 57 56 57 54 60 59 54 55 64 67 65 65 64 63 64 64 63 63 64 63 63 67 67 68 68 68 68 68 67 67 67 67 66 67 68 67 67 67 66 66 65 65
53 47 43 44 48 49 53 52 55 58 60 58 60 59 62 67 65 63 61 62 62 64 63 63 63 62 61 62 65 67 68 68 67 67 67 64 61 60 59 65 66 66 66 66 65 65 64 63 62
54 46 47 53 54 49 52 52 56 56 54 55 56 59 62 64 62 62 61 61 61 62 63 62 62 62 61 67 63 62 64 63 64 63 62 60 59 58 61 63 65 65 65 64 64 63 62 59 55
50 51 55 55 55 54 52 55 57 56 50 58 61 59 60 61 61 62 62 62 62 62 63 63 63 62 62 62 61 59 60 61 61 62 61 59 59 57 58 56 57 56 60 55 56 55 54 54 54
55 56 57 56 57 56 53 54 55 54 60 65 63 62 61 61 61 62 61 62 62 62 63 63 62 62 61 61 61 60 60 60 60 60 60 58 57 56 56 56 56 56 55 54 54 54 54 54 55
56 55 59 59 60 57 58 55 57 58 63 61 62 61 61 61 62 60 62 60 60 61 61 61 60 60 60 60 59 59 59 60 60 60 59 58 57 56 56 56 55 55 55 54 54 52 52 52 53
57 56 56 57 58 57 56 56 54 59 57 59 60 59 59 61 62 59 60 61 60 60 61 59 59 59 59 57 57 57 57 58 58 58 58 58 57 56 55 55 55 54 54 53 51 50 50 49 50
58 55 56 58 56 55 56 53 54 58 58 59 58 58 59 60 59 63 63 61 60 61 60 59 58 59 58 58 58 56 56 57 56 56 57 57 57 56 56 55 54 54 53 52 50 50 49 49 50
53 51 46 57 55 56 55 48 59 56 55 59 57 56 58 59 60 60 60 58 58 59 59 58 62 58 57 57 56 56 56 55 55 55 55 56 56 55 54 52 52 53 51 50 49 48 48 48 47
46 40 43 50 54 53 50 49 58 56 56 57 54 54 55 55 56 59 61 60 60 59 59 58 58 58 57 56 56 55 55 54 54 53 53 54 55 55 52 52 52 51 50 49 49 47 47 47 47
39 41 37 40 51 52 47 48 53 55 54 54 51 51 54 55 55 56 57 56 56 56 58 58 57 57 57 54 53 52 52 52 52 52 53 54 54 54 53 52 52 50 49 48 47 47 46 47 47
47 43 41 43 50 49 45 45 50 50 51 51 49 51 53 54 52 52 53 54 55 55 57 58 57 57 55 53 53 52 52 52 52 52 54 53 54 54 54 53 51 50 50 52 48 47 47 46 45
47 43 42 47 50 46 46 47 50 52 50 49 49 50 52 52 53 55 54 52 55 57 57 57 57 57 55 53 52 52 51 51 51 52 52 53 53 54 55 54 53 52 52 48 48 47 45 45 44
45 43 42 44 47 45 44 44 47 52 53 54 53 51 52 53 55 53 54 53 54 55 55 56 56 56 55 54 52 52 51 51 52 53 52 54 53 55 54 55 54 53 52 52 51 49 46 47 43
41 49 47 45 41 38 43 36 45 47 49 51 52 52 50 51 52 54 54 54 53 54 54 55 55 55 56 54 52 50 49 49 52 52 53 56 53 51 53 54 53 53 53 52 50 51 48 44 42
47 49 45 44 40 38 42 37 43 47 47 47 48 51 49 53 54 54 54 53 52 52 51 51 53 54 54 53 51 49 50 49 50 51 49 51 50 48 49 51 52 50 49 48 48 46 44 46 43
52 46 45 42 39 32 38 37 38 42 46 48 49 50 53 52 54 55 53 53 51 51 51 51 53 53 53 52 50 48 46 47 48 51 47 47 45 44 44 45 45 44 44 43 43 45 45 43 45
48 39 29 29 27 28 40 36 40 48 50 50 50 50 52 52 50 50 50 50 50 50 50 52 50 51 51 49 48 47 48 47 48 49 48 45 42 39 39 41 42 42 42 43 45 43 44 43 43
43 40 28 25 22 27 38 34 42 51 51 53 53 49 48 48 49 49 49 49 49 50 50 49 49 49 49 48 48 47 48 47 48 47 44 41 39 39 40 40 41 42 42 43 43 42 42 42 41
43 36 42 31 22 23 32 39 47 48 50 52 47 47 47 48 49 49 52 52 51 51 51 48 48 48 48 46 45 45 45 47 47 45 40 39 39 41 40 41 41 42 44 44 44 42 41 40 40
47 48 35 31 20 22 30 32 35 43 45 46 44 45 47 48 50 52 52 52 52 50 48 48 47 47 47 45 45 47 45 46 45 40 39 39 39 40 40 41 42 43 42 42 43 41 41 40 40
42 37 38 38 32 23 21 30 43 43 44 44 44 46 46 47 49 49 49 49 49 48 48 47 46 46 44 43 43 42 44 43 41 38 38 38 40 41 42 43 42 42 42 42 40 40 40 40 40
43 40 39 27 29 28 25 31 46 47 46 46 45 47 47 48 49 49 48 48 47 47 48 46 45 44 44 43 42 42 40 38 37 38 39 40 41 42 42 43 43 43 41 40 40 39 39 38 36

GFSSGP_sfc_temp_003.txt.gz
Temp
70 72 75 76 68 65 57 60 65 64 64 68 70 70 65 64 63 60 72 74 75 75 77 77 73 74 74 76 75 75 75 75 75 75 75 75 75 75 74 72 73 74 74 75 75 76 76 75 74
72 74 74 69 62 58 58 62 62 63 67 69 69 67 66 61 68 70 72 74 76 75 76 77 72 73 74 74 75 75 75 75 74 74 74 74 75 74 73 72 72 73 74 74 75 76 76 74 73
74 74 72 63 57 56 58 63 63 65 67 68 67 70 68 66 70 72 75 74 74 74 76 76 72 72 73 73 74 74 74 74 74 73 74 74 74 74 72 71 71 72 73 74 74 74 73 72 71
76 75 69 63 55 59 62 65 67 65 68 70 70 65 70 74 73 76 75 75 74 75 76 72 70 71 72 73 73 73 72 72 72 72 73 73 73 73 71 71 71 71 72 72 72 71 71 70 70
71 70 62 58 58 62 65 66 66 65 66 67 68 63 66 73 75 75 74 74 74 74 75 76 69 70 72 72 72 72 71 71 71 72 72 72 72 71 70 70 70 70 71 71 70 70 69 69 69
70 68 60 57 59 63 67 67 67 65 65 65 66 65 66 71 73 73 74 73 75 74 75 75 71 70 70 71 71 70 70 70 70 71 71 71 70 70 70 70 70 70 69 69 69 69 69 68 68
66 62 56 56 59 62 66 69 68 66 65 67 70 64 66 68 74 74 74 75 74 74 74 74 75 73 69 68 69 69 69 69 69 69 68 68 68 68 68 68 69 69 68 68 68 67 67 67 67
65 65 57 58 59 60 67 69 69 70 66 68 70 66 64 72 73 73 73 73 73 74 73 73 73 75 74 74 67 68 68 68 68 68 68 67 67 67 67 67 68 68 67 67 67 66 66 65 65
67 62 57 58 61 63 67 68 70 70 68 68 71 70 72 76 72 71 70 71 71 71 72 73 72 73 73 74 72 69 68 68 67 68 67 68 74 72 70 67 66 67 66 66 65 65 64 63 63
65 60 59 64 65 65 66 68 69 69 67 68 69 70 70 72 72 70 70 71 70 71 72 73 72 72 72 74 73 73 73 75 74 73 71 73 71 71 70 67 65 65 64 64 63 63 62 66 71
64 61 64 65 67 69 67 68 69 67 66 70 72 70 70 70 71 71 73 75 74 75 74 73 72 71 72 73 75 74 75 74 74 71 71 70 70 70 71 70 70 69 65 69 67 68 68 67 68
64 64 67 67 66 67 67 68 67 67 72 73 74 73 71 70 70 71 73 74 74 73 75 74 73 71 71 74 74 74 73 73 73 73 70 70 70 69 68 70 69 68 69 67 67 67 65 66 66
65 66 66 68 66 68 67 67 67 68 73 72 71 69 70 71 72 73 75 75 74 73 74 74 72 71 72 70 72 71 71 72 72 72 71 70 70 69 69 69 69 68 68 68 67 67 66 66 66
66 66 65 67 67 67 66 66 67 70 70 70 68 70 71 71 72 72 71 73 72 74 74 73 72 71 72 71 70 71 71 72 71 72 72 69 70 69 69 69 69 69 69 69 67 65 66 65 65
64 63 64 64 64 65 65 64 65 70 70 69 68 69 70 71 72 72 74 73 74 74 74 71 71 71 70 70 70 71 72 70 71 71 69 69 69 69 68 69 69 69 69 66 65 64 64 65 64
60 60 58 63 64 64 67 59 69 68 67 70 68 67 67 69 70 72 72 72 72 72 72 72 72 72 70 70 71 72 72 70 70 70 70 68 68 68 68 68 68 69 67 66 65 65 64 64 65
56 54 54 58 60 61 63 60 67 67 64 66 66 66 66 68 70 73 73 72 70 72 72 72 71 72 71 70 71 70 68 70 71 69 70 68 68 67 67 68 68 67 67 65 65 64 63 64 64
51 52 53 52 60 59 57 58 62 62 59 61 63 64 64 67 69 68 69 71 71 72 71 72 72 71 69 70 68 69 69 69 68 69 69 68 69 67 67 67 65 66 65 65 63 62 63 63 65
55 53 51 55 57 56 53 56 61 61 62 61 62 63 65 67 65 65 65 67 68 68 70 72 71 70 69 69 68 70 68 68 69 69 67 65 67 66 65 66 66 65 63 64 64 62 60 61 61
55 52 52 55 56 56 55 58 59 61 59 59 61 62 63 65 65 63 65 66 67 70 70 69 67 66 66 68 67 66 65 67 65 65 65 66 65 65 65 64 65 65 64 63 63 61 61 61 61
52 52 51 51 54 55 54 56 57 60 62 63 63 63 64 65 65 65 66 66 65 65 64 65 65 66 65 64 67 67 66 66 66 67 67 67 65 65 64 63 63 63 63 61 63 62 60 61 62
49 54 52 50 50 49 52 47 54 55 59 60 62 64 65 65 66 66 66 66 65 63 63 65 65 65 64 63 63 61 61 60 62 62 64 63 63 62 62 61 60 60 61 61 61 63 61 60 59
52 53 51 51 50 49 50 50 53 55 55 57 60 61 63 63 63 62 61 61 61 62 62 63 63 63 62 62 61 61 59 60 61 61 60 60 61 60 58 57 57 57 58 59 58 58 58 59 58
55 52 50 49 48 42 45 46 47 52 53 56 60 61 59 60 61 61 60 62 61 61 61 61 62 63 62 61 60 58 57 57 58 59 58 59 59 57 55 55 55 54 54 54 54 54 53 54 54
54 48 42 40 39 39 45 45 48 54 56 57 57 56 56 58 58 59 59 60 60 60 60 61 61 61 60 59 58 57 58 58 57 57 57 55 55 55 53 53 53 54 53 53 53 52 51 50 49
49 47 39 32 34 37 44 41 48 55 58 57 55 55 56 57 58 58 58 59 59 59 59 59 59 59 60 59 57 57 58 57 56 56 55 53 52 52 51 53 54 54 54 53 53 52 50 48 46
50 44 47 37 27 34 41 47 53 55 55 56 54 56 56 58 59 59 59 59 59 58 58 56 57 58 59 57 55 55 55 54 54 53 52 50 50 51 51 51 51 52 52 51 51 50 49 46 45
53 52 43 41 31 30 40 40 46 49 52 52 53 54 56 58 60 61 61 60 58 58 56 56 57 57 56 56 55 54 54 53 51 50 48 48 49 50 50 50 50 50 50 50 48 48 48 47 47
49 46 44 44 39 33 29 40 51 52 53 53 55 55 55 57 59 60 60 58 57 56 58 57 56 55 55 54 52 52 51 49 48 48 48 48 49 50 50 49 49 47 46 44 45 45 46 47 47
50 47 45 38 34 37 34 38 53 54 56 55 55 55 56 57 58 59 59 58 57 57 57 56 55 53 52 52 51 50 49 48 47 47 47 48 48 48 49 48 46 45 46 47 46 45 45 45 45

GFSSGP_sfc_temp_006.txt.gz
Temp
78 88 92 89 77 78 69 69 77 73 74 78 79 79 77 76 73 69 86 85 87 87 87 86 74 76 76 75 75 75 75 76 75 75 76 76 75 74 73 73 73 74 75 76 76 76 76 75 74
89 86 88 86 74 67 67 74 73 76 77 80 79 78 77 72 79 80 82 85 87 86 87 86 72 74 76 75 75 75 75 75 75 75 75 75 75 74 73 72 72 73 74 75 75 75 74 73 72
85 87 85 81 78 68 67 75 75 77 78 78 77 81 77 75 81 84 87 85 86 86 86 83 72 73 74 74 75 75 75 75 74 74 74 74 74 73 72 72 72 72 73 74 74 73 72 71 71
88 88 87 75 69 70 74 77 79 76 78 80 81 75 80 83 83 86 87 86 86 86 86 76 71 72 73 73 73 73 73 72 72 73 73 74 73 72 72 71 71 72 72 72 72 71 71 70 70
92 87 76 72 71 73 78 80 79 76 78 78 79 73 75 81 84 86 85 85 85 87 86 85 71 72 73 73 73 73 72 72 72 72 72 72 72 71 71 71 71 71 71 71 71 70 70 69 69
84 86 72 67 68 73 76 79 78 77 78 77 77 76 76 82 83 84 85 86 87 86 85 85 72 71 72 72 72 71 71 71 71 71 71 71 71 71 71 70 70 70 70 69 69 69 69 68 68
81 80 72 71 68 70 74 80 78 78 78 76 81 74 75 79 85 85 86 87 86 87 86 86 85 78 70 70 70 70 70 71 70 70 69 69 69 69 69 69 69 69 69 69 68 68 67 67 67
85 82 71 71 69 69 77 78 81 79 76 81 83 74 73 82 84 85 85 85 86 85 86 84 84 85 84 83 69 69 70 69 69 69 69 68 68 68 68 69 69 68 68 67 67 66 66 65 65
82 73 68 69 71 72 79 77 80 81 79 78 81 82 84 85 83 82 81 82 83 84 83 83 85 84 84 85 80 71 69 69 69 71 68 70 84 81 78 67 67 67 67 66 66 65 64 64 65
81 75 71 75 77 77 78 78 78 77 77 77 79 80 84 83 81 80 80 81 81 82 83 85 82 82 83 85 84 83 83 86 83 82 80 83 79 80 76 71 66 65 65 65 64 64 64 68 81
78 73 76 75 78 81 78 77 80 78 75 80 79 81 82 81 81 81 83 85 84 85 86 84 81 81 81 85 87 88 88 85 85 80 80 80 79 80 80 80 80 78 70 79 76 77 79 75 76
72 75 77 77 77 78 77 80 76 79 80 83 84 86 84 82 82 82 83 85 86 86 86 85 83 81 80 85 87 87 85 85 83 83 79 79 80 79 78 79 79 78 79 76 77 77 74 74 74
75 76 77 77 76 77 76 76 75 77 83 83 84 83 83 83 84 85 86 87 87 85 85 85 83 81 82 80 84 83 81 84 81 81 81 80 79 78 79 78 79 78 78 78 76 76 75 74 74
75 76 75 75 75 75 73 75 76 79 83 81 81 83 85 84 85 85 85 85 85 86 86 85 83 82 83 81 81 82 83 82 83 82 81 78 78 77 78 78 78 79 79 78 77 76 75 75 74
75 71 75 74 74 72 74 73 74 80 80 79 80 83 84 85 86 85 85 84 86 87 86 84 83 83 81 80 82 83 85 81 82 82 79 78 78 78 76 77 77 78 78 76 76 74 74 74 75
73 73 67 71 74 73 76 69 77 79 78 79 79 80 81 84 85 86 87 86 87 86 84 85 83 83 81 82 83 85 86 83 83 82 80 78 77 76 76 77 77 78 77 77 76 75 74 73 73
71 66 64 66 72 71 72 69 77 78 75 78 80 80 81 82 84 84 83 85 86 86 84 84 83 84 82 81 83 82 80 82 84 81 81 79 77 76 75 76 76 76 76 75 75 74 73 72 73
62 63 65 64 69 71 68 69 73 75 72 74 78 79 79 80 81 81 82 84 84 83 84 85 84 81 80 83 81 83 81 83 81 81 80 77 77 75 74 75 74 74 74 74 74 72 73 72 71
65 63 62 66 67 64 65 68 70 74 75 74 75 76 76 78 79 80 79 80 80 80 81 82 80 75 80 81 78 79 77 79 79 79 75 74 74 74 72 73 73 73 72 71 70 70 69 69 71
63 61 61 64 64 64 66 66 70 72 71 73 75 75 76 77 78 78 78 78 78 78 78 77 76 76 77 79 77 75 74 76 76 77 75 75 72 72 72 71 71 71 71 69 69 68 67 69 70
62 60 58 58 64 66 65 64 66 69 72 73 74 75 76 76 76 76 76 75 75 73 74 75 75 74 73 74 77 78 78 76 75 74 74 72 71 71 70 69 69 68 68 68 68 68 66 65 68
58 62 60 59 59 59 64 57 62 66 67 70 71 72 73 74 75 75 75 73 73 72 73 73 73 74 72 72 72 69 70 68 69 69 71 70 70 69 69 68 67 66 67 65 66 68 66 65 63
58 61 59 59 60 59 60 60 60 66 63 65 68 70 71 72 72 71 71 71 72 71 71 71 72 72 72 71 69 70 67 68 69 69 67 68 69 69 68 66 64 64 65 64 62 62 62 63 62
63 59 59 60 60 51 54 56 57 62 60 64 67 68 69 70 70 70 71 72 71 71 70 70 71 70 70 70 68 65 64 65 65 65 65 66 66 67 66 64 63 62 62 61 61 60 58 58 58
65 59 51 46 47 47 54 54 55 60 63 64 64 66 67 68 69 69 69 70 70 69 69 69 69 69 69 67 66 65 65 65 64 63 63 61 62 62 62 60 61 62 60 60 61 60 57 52 50
58 57 47 37 42 48 55 50 57 63 65 65 66 66 67 67 68 68 69 70 69 67 68 68 68 68 68 66 66 67 66 65 64 63 61 59 59 60 59 59 60 60 60 59 58 53 51 52 52
57 52 56 45 36 42 54 55 60 63 63 65 64 65 65 67 67 68 69 69 68 67 65 66 66 68 68 66 65 64 63 62 60 59 59 59 58 59 58 58 57 57 56 56 54 51 48 48 48
60 60 50 52 35 36 51 52 54 57 60 61 63 64 65 68 68 69 70 68 67 68 67 67 67 67 66 65 63 62 61 60 58 57 56 56 57 57 56 56 55 54 54 52 50 48 47 46 47
57 55 53 53 49 40 37 49 61 60 61 60 63 65 65 66 67 68 68 69 68 67 67 66 66 64 63 63 61 60 58 57 57 56 55 55 55 55 55 54 53 52 47 45 44 45 47 49 49
58 54 53 45 40 45 42 45 63 63 63 62 63 64 65 65 67 68 68 67 66 65 65 64 63 61 59 59 58 58 57 57 56 54 54 53 52 53 53 50 47 47 47 48 47 47 50 49 49

GFSSGP_sfc_temp_012.txt.gz
Temp
75 85 87 85 69 70 66 74 82 77 78 85 86 83 77 77 71 62 88 89 86 83 82 79 75 76 76 76 76 76 76 76 75 75 75 75 75 74 74 73 74 75 75 76 76 75 75 74 73
84 87 88 78 64 62 69 79 75 78 82 86 86 85 79 72 82 82 83 89 87 85 82 78 73 75 75 75 75 76 76 75 75 75 75 75 74 74 73 73 73 74 75 75 75 74 73 73 72
78 88 78 71 68 64 68 77 76 81 86 85 81 84 81 77 83 83 88 90 87 82 79 75 72 73 74 74 74 75 74 74 74 74 75 75 74 74 73 73 73 73 74 74 74 73 72 71 70
83 83 80 68 67 76 77 79 81 80 84 87 84 75 83 89 83 86 90 90 88 81 77 72 71 72 73 73 73 73 73 73 73 74 74 74 73 73 72 72 72 72 72 72 72 71 70 70 69
84 79 67 69 72 77 81 83 83 78 80 82 84 74 76 84 88 89 89 90 86 80 78 75 71 72 73 73 73 72 72 72 73 73 73 73 73 72 71 71 71 71 71 71 71 70 70 69 69
74 77 65 66 71 77 81 84 83 78 83 82 81 77 76 87 86 87 89 88 88 82 77 77 72 72 72 72 72 71 71 71 71 71 72 71 71 71 71 71 70 70 70 70 69 69 69 68 68
71 69 65 71 70 73 77 85 81 81 81 81 86 74 79 83 86 88 88 88 86 86 83 80 76 72 71 70 70 70 70 70 70 70 70 70 70 70 70 70 70 70 69 69 69 68 68 68 68
79 75 68 73 69 70 79 82 85 83 78 88 88 75 73 81 86 87 86 86 86 85 85 81 78 78 74 71 70 70 70 70 70 70 70 69 69 70 70 70 69 69 69 68 68 68 68 68 68
87 71 69 71 73 73 81 79 84 87 82 84 85 84 84 85 86 84 82 84 83 84 82 81 82 79 77 75 73 70 70 70 70 70 69 68 72 71 70 69 69 69 69 69 68 68 68 67 66
80 73 73 80 80 77 80 81 80 79 78 79 80 85 85 84 82 80 80 79 80 80 82 81 79 78 79 86 73 75 77 74 73 75 74 75 74 74 75 72 68 68 68 68 67 67 67 66 67
81 73 79 80 80 83 80 80 83 79 75 79 77 80 82 81 80 80 82 82 82 82 82 81 78 78 79 78 77 78 77 76 76 75 75 74 74 73 71 69 69 66 66 67 66 68 65 69 67
76 81 81 80 82 82 79 82 79 80 80 86 85 84 82 81 81 81 82 83 83 82 83 81 79 77 77 78 77 77 76 75 74 74 74 71 70 70 69 69 69 68 69 68 68 67 68 68 69
78 79 81 82 81 81 81 79 79 80 85 87 88 85 82 82 82 84 85 80 83 81 82 81 79 77 77 77 75 75 74 73 73 74 72 71 70 68 69 68 68 68 68 68 66 67 67 66 67
81 80 80 81 80 80 77 79 79 82 86 84 85 83 83 83 84 84 84 83 82 84 83 80 80 77 78 77 75 74 73 73 73 72 72 72 69 68 68 67 67 67 68 67 66 66 66 65 66
82 75 78 78 79 77 80 73 74 83 85 83 82 83 85 85 87 84 84 84 84 85 85 81 78 77 77 77 75 74 74 75 73 73 72 73 71 69 68 66 66 67 67 67 66 66 66 65 67
75 76 68 76 79 79 77 66 79 84 82 80 82 82 84 86 86 86 86 86 87 85 72 70 83 78 77 76 75 76 75 73 73 72 72 71 72 71 67 66 65 66 66 65 64 64 63 63 63
72 64 68 70 80 78 75 70 80 84 82 80 82 83 83 84 86 86 86 85 86 83 82 81 79 76 76 76 76 75 74 73 72 71 70 70 70 69 66 65 64 65 64 63 63 63 62 61 61
63 66 70 68 74 75 72 73 79 81 80 79 81 82 83 82 85 86 86 85 85 83 82 82 77 73 76 75 75 74 73 72 72 71 70 70 69 67 65 64 63 64 62 61 61 59 61 60 61
71 69 68 71 73 70 70 72 75 78 80 78 79 80 81 79 81 80 79 79 80 80 77 75 69 73 74 74 70 68 67 69 69 71 70 70 67 66 64 62 61 61 60 59 59 58 57 58 59
70 67 67 71 73 70 71 70 74 76 76 78 77 77 77 77 77 77 76 73 73 74 73 75 74 72 71 72 69 68 68 68 69 69 67 68 66 65 66 62 61 60 58 57 57 56 55 55 56
69 65 63 63 70 72 69 67 68 73 75 76 77 78 77 75 73 74 73 72 71 71 71 73 72 70 68 68 71 68 68 66 66 66 65 66 65 66 64 61 60 58 57 55 55 55 54 52 54
62 68 66 65 63 57 70 55 65 69 69 71 72 73 73 74 76 75 73 70 69 68 70 71 72 71 70 68 67 65 64 62 64 64 64 64 64 62 62 61 59 57 56 54 54 58 53 52 50
63 68 66 65 62 62 65 59 63 69 64 66 69 71 71 72 73 72 71 71 71 69 68 70 71 71 70 69 66 63 62 61 61 60 60 60 60 60 60 59 56 55 55 54 53 52 51 50 47
70 67 67 66 62 50 61 60 54 61 63 66 69 70 71 72 72 72 73 73 71 70 69 69 70 71 70 68 65 62 60 60 59 58 57 56 57 56 56 58 55 54 54 53 52 51 48 46 46
69 63 49 45 47 45 62 58 57 66 69 69 68 69 70 70 70 71 72 72 71 69 69 69 69 69 69 68 65 63 61 59 57 56 54 53 53 53 53 54 53 53 52 53 52 50 49 48 45
64 61 47 39 39 47 62 53 56 67 70 70 70 70 71 70 70 70 71 70 70 70 69 69 68 67 68 66 64 62 60 58 57 55 53 52 52 52 53 53 53 51 50 49 49 48 47 46 46
61 55 63 51 44 42 54 59 64 67 66 68 68 69 70 71 72 71 71 71 70 69 68 66 66 67 65 62 60 59 58 56 54 53 53 52 52 54 52 50 50 49 47 48 47 45 45 46 44
64 66 52 52 37 37 50 53 50 59 62 65 67 67 69 70 71 70 70 68 68 67 66 64 63 62 62 61 58 58 57 56 55 53 52 51 50 51 50 49 49 48 47 46 46 43 44 44 44
61 59 58 57 50 40 38 47 63 62 64 63 65 68 67 67 68 68 68 68 67 66 65 62 61 61 60 60 58 57 56 56 55 53 50 50 49 50 51 50 50 49 47 44 43 43 43 43 43
64 59 59 44 44 46 43 45 66 66 66 65 65 67 67 66 66 66 65 64 64 63 63 62 61 60 59 59 57 56 56 55 53 51 50 49 48 49 49 49 48 48 46 45 44 43 43 43 42

GFSSGP_sfc_temp_015.txt.gz
Temp
69 75 73 72 59 57 54 65 71 70 71 77 77 72 68 70 65 55 76 77 75 73 75 76 73 74 75 75 75 75 75 75 75 75 74 74 74 74 73 73 74 75 75 75 75 75 74 74 73
72 80 74 68 55 50 56 70 66 71 75 78 77 74 69 64 75 73 72 77 77 75 74 74 73 74 74 74 74 74 75 75 75 75 74 74 74 73 73 73 73 74 74 74 74 74 73 72 71
75 79 66 60 55 52 56 69 69 73 78 76 72 75 72 67 75 74 78 77 75 72 73 73 72 72 73 73 73 73 73 73 73 74 74 74 74 73 73 72 72 73 73 73 73 72 71 70 69
75 72 68 57 55 63 66 69 74 75 78 78 75 66 75 79 75 78 79 75 71 68 69 70 71 72 73 73 73 73 72 72 72 73 73 73 73 73 72 71 72 72 72 72 72 71 70 69 69
72 66 57 55 59 68 72 75 74 71 72 72 73 66 68 76 80 79 75 75 68 66 68 70 70 71 72 73 73 72 71 71 72 72 72 72 72 72 71 71 71 71 70 70 70 70 69 69 68
65 65 54 51 64 70 72 75 76 73 75 73 70 69 67 76 76 77 77 73 73 68 68 70 71 71 71 71 71 70 70 70 71 71 71 72 71 71 71 70 70 70 70 69 69 69 69 68 68
62 58 54 58 63 66 72 77 73 73 74 72 75 65 68 72 75 76 76 75 73 71 67 67 69 70 69 69 69 69 70 70 70 70 70 70 70 70 70 70 70 70 69 69 69 68 68 68 68
68 63 59 59 63 60 72 74 73 73 68 78 75 64 62 71 75 75 75 73 74 72 71 68 67 68 66 67 68 68 69 69 69 70 69 69 69 69 69 69 69 70 69 69 69 68 68 67 67
74 59 57 62 62 63 69 68 74 75 74 74 73 73 73 75 76 73 70 71 72 75 73 70 70 68 67 66 69 69 69 69 69 69 69 67 66 67 68 67 68 69 69 68 68 68 67 66 66
67 57 60 68 68 65 68 68 72 70 70 68 70 75 76 75 73 71 70 70 70 72 72 72 72 69 69 77 68 66 69 67 67 67 66 66 65 65 69 68 68 69 68 68 68 67 67 66 62
64 60 67 70 72 71 67 69 73 67 63 68 66 70 72 72 71 71 72 72 73 74 73 72 72 71 71 70 66 66 66 65 66 68 68 68 67 66 64 63 64 61 65 62 65 64 63 62 62
65 71 72 70 72 72 69 70 68 63 68 75 74 74 73 71 72 72 72 72 72 72 73 72 71 72 70 69 68 68 68 67 66 67 68 65 63 63 63 63 64 62 61 61 62 61 63 63 65
68 69 73 73 73 70 75 69 68 67 74 76 76 76 73 73 72 74 75 76 75 73 73 72 71 70 71 69 66 67 66 67 66 66 67 65 63 63 63 62 62 62 62 62 62 62 63 63 64
72 71 70 70 70 71 68 67 70 68 73 75 76 73 73 74 75 73 73 77 74 77 75 71 69 69 71 68 67 66 65 67 65 64 65 66 63 62 62 62 62 62 61 61 61 61 60 60 61
73 65 68 68 69 67 68 62 64 70 74 73 73 72 72 75 75 75 74 73 77 75 69 67 66 68 67 69 69 67 67 68 64 65 66 66 66 63 62 60 60 61 61 61 61 60 60 60 62
65 62 55 65 69 69 66 54 66 72 72 68 70 72 73 73 75 74 75 75 72 69 69 68 70 66 64 65 67 67 66 66 65 64 63 64 64 63 60 60 59 59 60 59 59 58 58 57 57
57 50 55 61 70 67 62 58 66 70 71 68 67 68 70 70 71 74 75 74 72 70 68 64 64 65 66 66 66 65 67 67 65 63 63 63 63 62 59 59 58 58 58 57 57 56 54 54 55
52 55 54 55 58 63 58 56 63 67 70 66 64 65 66 68 68 72 71 72 70 69 69 66 64 64 65 66 65 63 63 63 63 62 63 62 61 62 59 59 57 58 56 55 54 53 54 53 53
62 59 56 56 65 60 59 58 62 64 65 63 63 66 66 66 68 68 69 67 66 65 67 64 62 62 64 62 61 60 60 62 62 62 62 62 62 63 60 57 57 55 55 53 53 52 52 52 52
63 58 54 59 66 60 56 55 61 65 63 63 64 63 64 64 66 67 65 63 61 62 62 63 64 62 63 61 60 61 61 61 61 62 61 61 60 60 63 55 54 54 53 52 51 50 49 49 50
59 55 54 55 61 59 56 53 58 63 66 68 65 65 65 63 63 64 63 59 60 60 61 63 63 63 62 62 61 61 60 59 59 58 61 60 58 58 56 55 53 52 51 50 49 49 48 46 47
54 61 60 59 53 45 56 41 53 59 60 63 62 60 60 62 64 64 62 59 59 59 61 62 63 63 65 62 58 57 54 54 55 55 54 56 55 55 56 54 52 51 50 49 48 53 47 46 43
57 61 58 57 51 48 52 45 49 59 55 57 58 61 60 60 61 60 60 61 60 61 60 60 62 63 63 61 59 56 55 55 55 54 52 52 52 54 54 54 51 50 49 47 46 45 44 44 43
65 59 57 55 51 36 51 48 46 51 56 57 60 61 61 60 61 62 62 62 60 60 60 61 62 62 62 63 61 57 54 54 51 50 49 49 50 50 51 52 49 48 47 46 46 46 45 47 46
59 51 35 34 32 32 53 49 46 55 61 61 59 57 59 60 59 59 60 59 59 58 59 59 60 62 61 59 57 55 54 52 49 48 47 47 47 47 47 47 46 45 45 45 44 44 46 46 44
54 52 33 31 29 34 52 44 46 59 61 62 62 60 61 60 61 60 62 61 60 64 59 59 61 60 58 56 55 54 53 52 49 49 48 47 45 45 46 46 46 45 45 44 43 45 42 44 42
55 45 54 40 35 30 43 49 56 60 61 62 62 61 61 60 60 62 61 60 59 58 56 56 57 57 56 55 53 53 52 51 50 49 46 45 45 49 46 45 45 45 44 44 43 40 40 41 40
57 59 41 38 30 30 40 43 42 52 53 58 59 58 59 58 58 58 58 57 57 57 55 54 55 55 55 54 53 54 53 52 50 46 45 45 45 45 45 45 44 44 44 43 41 39 39 39 39
52 49 50 49 38 29 26 36 52 53 55 54 56 57 55 55 56 56 56 56 56 56 55 53 53 54 53 52 52 50 50 49 47 46 45 45 44 45 45 45 44 43 42 41 40 39 40 39 39
56 52 51 32 35 32 30 35 56 54 56 56 57 57 56 56 55 54 55 54 54 53 53 53 52 52 53 53 52 51 50 48 46 45 45 44 45 45 44 43 42 42 41 40 39 38 37 36 35

GFSSGP_sfc_temp_018.txt.gz
Temp
69 73 72 71 61 57 50 58 69 65 64 71 74 68 63 65 62 53 70 73 73 72 73 74 73 74 74 74 74 74 75 75 75 74 74 73 73 73 73 73 73 74 75 75 75 74 74 73 72
72 78 72 65 54 48 53 65 65 68 71 73 73 71 67 60 67 66 67 73 74 73 73 73 73 73 74 74 74 74 75 75 74 74 74 73 73 73 73 73 73 73 74 74 74 74 73 71 70
74 77 65 59 52 49 53 64 69 71 75 73 67 71 70 64 69 69 72 74 73 71 72 73 72 72 73 73 73 73 73 73 73 73 74 73 73 73 72 72 72 72 73 73 73 73 71 70 69
73 69 66 55 50 58 61 66 71 71 72 74 70 64 71 74 72 72 73 72 70 69 70 70 71 71 73 73 73 72 72 72 72 73 73 73 73 72 71 71 71 71 72 72 72 71 70 69 68
70 64 54 50 54 65 70 72 74 68 68 68 71 64 66 71 74 72 71 71 68 67 69 70 69 71 72 73 73 72 71 71 71 72 72 72 72 71 71 70 70 70 70 71 71 70 70 69 68
63 64 53 47 59 68 71 73 74 69 68 69 68 67 65 73 71 71 71 68 68 66 67 69 71 70 71 71 71 70 70 70 71 71 71 72 71 71 71 70 70 70 70 70 70 70 69 69 68
62 57 52 53 59 66 70 72 69 67 66 66 71 63 66 68 71 71 69 66 67 65 65 65 67 69 69 69 69 69 70 70 70 70 70 70 70 70 70 70 70 70 70 70 70 69 68 68 68
65 62 55 55 60 60 71 70 71 70 64 74 74 61 62 68 72 71 69 67 64 64 65 63 64 65 65 65 68 68 68 69 69 69 69 68 69 69 69 69 70 70 70 70 69 69 68 68 67
69 57 53 59 61 65 70 68 69 69 69 67 69 70 73 71 71 68 65 64 65 66 65 64 64 64 64 65 68 68 69 69 68 69 69 66 65 66 66 67 68 69 69 69 68 68 67 66 66
63 55 58 68 68 63 67 69 69 66 63 63 65 71 71 72 71 68 67 66 66 66 66 66 65 65 65 73 66 65 68 66 66 66 65 64 63 63 67 66 68 68 68 68 68 67 66 65 61
61 60 65 68 68 69 67 68 70 64 58 66 65 67 70 69 68 69 69 70 69 70 70 68 68 67 66 68 63 63 64 63 64 65 64 63 64 62 62 61 62 60 64 61 62 62 61 61 60
61 66 68 66 67 66 67 68 67 63 66 71 73 72 69 68 69 70 70 68 68 70 70 69 68 66 65 65 64 64 64 64 63 64 64 62 61 60 60 59 60 60 59 59 59 58 60 61 62
64 66 69 68 70 65 69 65 67 62 70 73 73 72 71 71 70 72 73 72 70 70 71 68 67 66 66 66 64 64 64 63 63 63 64 62 61 60 60 60 59 59 59 58 58 59 59 59 60
67 68 67 68 67 67 66 63 68 64 68 69 71 70 71 72 72 72 69 71 71 72 67 65 65 66 68 66 67 65 64 63 63 62 64 64 61 60 59 59 59 58 58 58 57 57 57 57 58
68 62 63 62 63 62 66 58 59 68 70 68 69 70 70 71 73 73 72 72 73 73 69 67 66 65 66 68 67 66 64 64 62 62 62 62 61 60 58 57 57 57 57 57 57 56 56 56 58
62 59 52 61 64 64 63 54 63 65 67 65 67 69 70 70 72 72 67 68 73 67 69 66 69 64 64 65 65 66 66 62 62 61 61 61 61 60 57 57 56 56 56 56 55 54 54 53 53
54 47 52 56 65 62 58 55 61 65 67 64 64 62 62 63 64 65 65 64 67 68 66 63 62 63 63 64 63 62 62 61 59 59 59 60 60 60 57 56 55 55 55 53 53 53 50 50 51
49 50 44 52 55 58 55 53 61 62 63 60 58 60 59 60 61 64 65 64 64 62 61 61 61 61 62 62 60 58 59 59 59 58 59 60 59 59 56 55 55 54 53 52 51 50 51 49 49
60 53 52 52 60 59 55 53 56 58 58 57 58 58 59 59 62 62 62 63 62 61 60 59 59 60 61 59 57 57 56 58 57 58 59 58 58 58 57 55 53 52 51 50 50 49 48 48 48
58 54 51 57 63 57 54 52 54 58 57 59 58 58 58 59 60 60 59 57 57 58 58 59 60 59 59 58 55 56 56 56 56 59 59 57 56 56 57 51 50 50 49 49 48 47 46 46 48
53 52 51 53 55 55 56 51 53 58 59 60 59 59 60 58 57 59 59 55 55 56 58 60 60 61 59 59 59 58 58 56 54 54 53 54 56 55 52 51 50 49 48 46 45 45 45 43 44
49 57 57 54 49 44 51 38 48 52 54 57 57 56 57 59 59 59 58 56 55 55 57 59 61 61 61 59 57 56 53 53 52 50 50 50 52 52 52 51 48 47 46 45 45 47 43 43 41
54 58 54 53 47 45 48 42 46 53 51 52 53 55 55 56 58 56 59 58 58 57 57 57 59 60 59 57 56 54 52 51 50 49 49 50 50 50 50 49 46 45 45 44 43 43 42 42 41
60 55 53 51 46 35 47 44 42 46 51 54 55 55 55 55 55 57 58 58 57 56 57 56 58 58 59 56 55 53 51 50 48 47 47 50 49 46 46 47 44 44 43 42 42 42 42 41 41
56 47 34 33 31 32 50 44 43 53 58 57 54 54 56 56 55 55 57 56 55 54 55 57 57 55 55 53 52 51 49 48 49 51 50 48 46 44 44 44 43 43 43 43 42 42 44 44 43
52 47 32 32 28 33 48 39 44 54 60 60 58 57 57 56 55 54 55 54 54 55 54 54 55 54 54 53 52 51 50 51 52 51 49 46 43 44 44 44 44 44 43 43 41 40 39 41 38
51 43 51 38 33 29 39 45 52 57 56 59 60 60 55 53 53 54 55 53 53 53 52 54 54 53 53 52 51 50 50 52 51 48 44 43 43 46 44 43 43 43 42 42 41 38 38 37 37
54 55 41 36 29 29 37 39 41 48 52 55 53 51 52 53 53 53 53 53 53 51 50 51 52 53 52 51 50 51 50 49 46 44 43 43 43 44 43 43 42 41 41 40 39 37 37 36 36
49 46 46 44 35 28 25 34 48 50 52 50 49 51 50 51 51 52 53 53 51 51 51 50 49 50 50 50 50 48 48 47 44 44 43 43 43 44 46 43 42 41 40 39 37 36 36 35 34
52 48 46 31 35 30 28 33 52 51 52 52 52 53 51 52 52 52 52 50 49 49 50 50 49 49 50 50 49 48 47 46 45 44 44 43 45 46 44 44 43 41 40 38 37 35 35 34 33

GFSSGP_sfc_temp_024.txt.gz
Temp
62 66 64 66 59 55 47 55 64 62 61 65 67 65 60 60 61 54 69 70 71 69 71 72 73 73 74 74 74 74 75 74 74 73 73 73 73 73 73 73 74 75 75 75 74 74 73 72 71
66 69 65 59 51 48 50 60 61 61 64 66 66 66 65 59 66 64 66 71 71 70 70 71 72 73 73 73 74 74 75 74 74 73 73 73 73 73 73 73 73 74 75 75 74 73 72 71 70
67 69 60 52 48 49 51 61 63 64 69 69 66 69 66 61 66 66 70 71 71 69 70 71 71 72 73 73 73 73 73 73 73 73 73 73 73 73 72 72 72 73 74 74 74 73 71 70 70
67 64 58 51 45 53 59 62 66 66 68 68 67 63 66 68 66 68 72 70 69 68 69 70 70 71 72 73 73 72 72 71 72 73 73 73 73 73 72 71 72 73 73 73 73 72 71 69 69
63 58 50 44 47 55 62 66 67 65 65 67 68 61 62 66 69 70 70 70 71 70 69 69 69 71 72 73 73 72 71 71 71 72 72 73 73 72 71 71 71 71 72 72 72 71 70 69 69
58 58 47 44 50 58 62 67 67 65 67 68 65 61 60 68 68 70 72 71 72 70 71 70 70 71 71 71 71 70 70 70 71 71 71 72 71 71 71 71 71 71 71 71 70 70 69 69 68
55 53 48 52 54 57 63 69 65 63 65 64 66 55 62 65 68 70 71 70 70 70 68 69 67 69 69 69 69 69 69 70 70 70 70 70 70 70 70 70 71 71 70 70 70 69 68 68 67
58 56 48 48 55 50 63 67 68 66 62 70 68 55 58 64 66 66 67 66 66 64 64 63 64 65 64 65 68 68 68 69 69 69 69 68 69 69 69 69 69 70 70 70 69 68 68 67 66
62 53 46 52 55 57 66 64 66 67 65 64 62 62 65 64 63 63 62 62 61 62 62 61 62 62 62 63 66 68 69 69 68 68 68 66 63 63 64 67 68 68 68 68 68 67 66 65 64
57 49 52 62 63 62 68 65 65 64 61 60 59 62 63 62 62 60 59 58 58 60 61 60 61 61 61 68 64 63 65 64 64 64 64 63 62 62 64 64 66 66 66 66 66 66 65 62 58
53 53 59 65 66 70 65 63 62 61 56 61 59 59 60 60 60 60 60 61 62 61 62 61 61 61 61 64 61 61 62 62 62 63 62 62 62 61 60 58 57 57 62 58 59 59 57 57 57
54 62 65 65 68 65 64 64 60 59 63 66 66 63 61 60 61 61 61 62 61 61 64 62 61 61 61 61 61 61 61 61 61 62 62 60 58 58 56 56 56 56 56 56 55 55 56 56 57
60 62 65 64 66 65 66 62 62 59 62 66 66 64 62 62 62 64 66 65 63 62 62 62 62 61 62 61 61 60 61 62 62 61 61 59 57 56 56 55 55 55 55 54 53 54 54 54 55
64 63 62 63 62 62 63 60 61 57 61 62 64 63 63 64 64 62 62 62 63 64 63 62 61 61 62 61 61 60 60 61 61 59 59 59 57 56 55 54 54 53 53 52 52 52 52 52 53
64 58 60 60 57 58 62 55 54 57 62 61 62 63 60 62 61 63 63 63 64 64 62 60 61 61 60 61 61 61 62 61 59 59 58 58 57 55 54 52 52 52 52 52 52 52 52 51 52
58 54 50 55 58 57 58 49 57 57 61 57 59 61 60 58 60 59 63 63 63 60 60 61 63 61 60 60 59 60 58 58 57 56 55 56 56 54 52 52 51 52 52 51 50 49 49 48 48
50 45 47 51 57 56 55 48 53 56 58 55 54 55 56 55 56 57 59 61 60 60 61 60 60 60 60 59 57 57 55 56 55 54 54 55 55 55 52 53 51 54 50 48 49 48 47 47 47
45 45 40 45 50 54 50 45 49 50 55 51 49 50 51 52 52 57 57 59 59 60 61 60 60 59 58 57 56 56 57 54 54 55 57 55 57 55 55 53 50 49 48 47 46 46 46 46 45
53 48 45 45 52 48 44 43 46 48 49 48 48 48 49 50 53 55 55 57 58 59 61 61 60 59 58 55 55 53 52 52 54 54 56 56 55 52 49 48 47 47 46 45 45 44 44 44 44
52 48 46 48 53 49 45 44 47 49 47 47 48 48 49 50 52 55 54 55 56 57 58 57 58 58 57 55 53 53 52 56 55 53 50 51 50 50 50 47 46 46 46 45 43 42 42 42 42
49 48 45 47 49 49 46 43 45 50 50 52 51 51 52 52 51 53 53 52 53 53 55 57 57 57 56 55 53 52 52 51 49 48 47 48 49 49 48 47 46 45 45 43 41 41 40 39 40
45 51 51 50 44 39 45 35 42 44 46 48 49 48 50 51 52 53 53 53 52 51 53 54 55 55 55 55 54 53 50 48 46 46 46 46 48 49 49 47 47 44 43 42 41 43 40 39 37
49 53 50 48 43 41 42 37 38 46 43 46 47 49 48 49 51 52 53 53 51 51 50 52 54 54 53 53 52 49 46 45 45 45 48 50 50 50 48 46 44 42 41 41 40 39 39 39 38
54 51 48 44 41 33 39 39 36 40 45 47 48 50 50 48 50 54 54 54 51 52 54 52 54 52 52 51 50 49 47 46 45 46 49 48 45 44 44 44 42 42 41 40 39 39 39 38 37
50 44 32 31 30 30 42 38 41 47 49 50 50 49 49 50 49 50 52 53 53 52 50 50 51 50 51 50 50 49 48 47 47 47 45 44 43 41 41 41 41 41 41 41 40 39 38 37 37
45 44 32 32 27 31 41 35 41 48 52 53 51 50 50 49 50 50 53 52 49 49 49 50 51 50 50 50 49 48 48 46 46 46 44 43 41 41 41 41 41 41 42 41 40 39 38 37 36
45 39 45 34 31 28 34 40 46 48 48 49 49 50 48 48 49 49 48 48 48 48 48 49 49 50 50 49 47 46 45 45 44 44 42 41 41 43 42 43 44 44 43 40 39 37 36 36 35
48 50 38 33 28 28 32 34 35 42 45 48 47 46 46 46 46 47 47 47 48 48 47 48 48 48 48 47 45 46 44 45 44 42 41 40 40 41 45 44 42 41 39 40 38 37 36 35 34
45 42 39 39 32 26 22 31 43 47 49 48 46 45 46 46 45 46 47 48 48 48 49 48 46 47 46 45 44 44 43 43 42 41 40 40 41 43 41 41 40 39 40 39 37 36 35 33 33
46 43 41 30 33 28 27 31 45 46 48 47 45 47 45 45 45 46 47 48 49 48 47 47 45 47 44 44 44 43 42 42 41 40 40 40 39 39 39 39 41 42 39 37 37 34 35 33 32

GFSSGP_sfc_temp_027.txt.gz
Temp
73 75 76 75 67 66 60 62 70 65 63 69 71 70 65 65 62 57 72 74 75 75 78 79 73 74 74 74 74 74 74 74 74 74 74 74 74 74 74 74 74 75 75 75 75 74 74 73 72
76 76 75 71 64 58 61 66 64 65 66 71 71 69 67 61 67 65 69 74 75 76 78 79 72 73 74 74 74 74 75 74 74 74 74 74 74 74 73 73 74 75 75 75 75 74 73 72 71
75 77 72 67 60 59 60 66 66 67 70 70 67 70 63 62 67 68 72 74 76 75 77 77 72 72 73 73 74 74 73 73 73 73 74 74 74 74 73 73 73 74 75 75 74 73 72 71 70
76 76 71 65 58 62 64 67 67 60 65 70 71 63 66 69 68 71 73 75 76 75 78 73 70 72 73 73 73 73 72 72 72 73 74 74 74 73 72 72 73 74 74 74 73 72 71 70 69
74 70 63 59 58 63 68 70 71 67 63 65 69 64 63 68 70 72 72 75 75 75 77 77 69 71 72 73 73 72 71 71 72 72 73 73 73 73 72 71 72 72 72 72 72 71 70 69 69
71 68 61 57 59 64 67 71 70 66 67 70 66 64 63 69 70 72 75 75 76 74 75 76 71 71 71 72 71 70 70 70 71 71 72 72 72 71 71 71 71 71 71 71 70 70 69 69 68
67 64 59 60 60 62 66 71 68 68 67 67 69 61 63 65 70 73 75 76 73 73 73 74 76 74 70 69 69 69 70 70 70 70 70 70 70 70 70 70 71 71 70 70 70 69 68 68 67
70 67 59 60 57 59 68 70 72 70 66 72 71 61 60 66 70 71 72 72 72 71 71 71 74 75 75 74 68 68 69 69 69 69 69 69 69 69 69 68 69 69 69 69 69 68 67 67 66
70 63 58 58 57 62 69 67 71 72 68 68 67 68 70 68 67 66 65 65 66 67 69 70 72 72 72 73 73 70 69 69 68 70 68 68 74 74 74 68 68 68 68 68 68 67 66 65 66
67 61 61 67 69 63 63 70 68 67 66 65 63 65 66 65 65 64 64 64 65 67 69 70 70 70 71 74 74 73 74 74 74 74 73 74 72 72 72 68 66 66 66 66 66 65 66 70 74
64 63 65 68 72 75 70 66 69 66 64 68 65 62 64 64 65 65 65 67 68 70 70 70 69 70 71 73 73 74 74 74 73 72 72 72 71 72 73 72 72 71 67 72 71 72 71 69 70
64 67 69 72 73 69 67 68 65 70 70 73 70 68 66 64 65 65 66 68 69 70 71 71 70 69 69 72 72 72 73 73 73 73 71 72 72 69 69 70 69 69 70 68 68 69 67 68 68
65 68 68 69 69 70 69 67 68 69 68 72 68 67 66 67 68 69 71 71 70 70 70 70 69 69 69 69 70 71 71 72 72 72 70 71 70 68 68 67 68 68 69 68 68 68 67 67 67
68 68 67 66 66 68 68 67 70 68 68 68 67 67 68 68 68 69 70 70 70 71 71 69 69 69 70 69 68 67 66 66 68 67 70 68 69 67 67 66 67 67 68 68 68 67 67 66 66
68 65 66 65 68 66 70 64 63 65 67 65 66 66 67 68 70 70 72 70 71 73 71 67 66 68 68 68 65 62 65 64 62 63 64 66 67 65 65 66 66 66 65 65 66 65 66 65 65
64 62 59 65 67 65 68 58 60 62 65 63 65 65 66 67 70 69 70 73 73 71 69 68 66 65 63 63 59 59 61 60 60 60 62 65 65 66 63 59 63 63 60 60 63 63 63 63 63
58 56 56 61 65 65 64 57 59 60 64 61 63 64 64 64 64 63 65 70 69 69 66 65 66 65 63 58 56 57 59 59 61 63 66 65 60 62 60 57 61 61 61 61 61 61 60 60 60
54 55 56 58 61 60 57 52 55 57 62 59 59 60 60 60 58 59 61 64 65 67 66 65 65 61 57 58 58 59 59 61 63 62 59 59 62 62 63 61 60 62 61 59 59 58 59 59 57
59 57 56 57 57 55 50 51 52 55 58 57 57 58 58 58 58 60 60 63 65 65 65 65 60 58 57 60 59 59 60 59 58 61 63 62 62 61 61 62 61 60 59 57 56 57 55 57 56
57 56 54 55 56 56 52 50 53 55 53 56 57 57 58 57 58 58 61 64 65 65 65 65 65 63 62 66 66 66 64 64 63 61 60 61 60 61 61 59 59 58 59 56 55 54 54 55 54
55 54 54 54 56 56 55 52 51 54 55 55 56 57 58 58 57 59 61 63 64 64 65 66 67 66 67 65 65 64 63 61 61 61 60 60 60 60 59 58 58 57 57 55 54 53 51 51 53
52 58 56 54 55 51 54 50 50 51 51 54 56 57 57 58 60 61 61 61 62 61 63 65 65 65 64 64 65 63 65 63 60 60 61 61 57 58 59 58 57 56 57 54 54 55 52 51 49
54 57 56 54 52 52 51 52 49 51 49 53 55 56 57 59 61 60 61 62 61 61 62 63 64 64 63 63 62 62 59 59 59 59 58 58 59 58 57 57 55 55 56 54 53 53 52 52 49
57 56 54 51 51 44 48 49 48 48 53 54 56 57 57 58 59 60 61 61 62 62 62 61 62 61 61 62 61 60 59 58 60 60 60 60 59 58 56 55 54 54 53 52 52 51 50 50 49
57 53 43 41 41 40 47 45 52 55 56 59 57 57 58 59 59 60 61 61 61 59 60 61 62 60 61 61 61 61 60 59 59 59 58 57 57 56 54 53 52 53 52 52 52 51 50 50 49
52 53 43 36 36 41 47 43 53 55 59 61 61 60 58 58 59 59 60 61 60 59 60 60 61 60 61 61 60 59 57 58 58 57 57 56 55 55 54 53 53 53 52 52 51 51 50 49 48
52 48 52 41 36 38 45 49 55 53 54 56 57 57 57 59 59 59 59 58 58 58 58 59 60 60 59 59 57 57 57 56 56 55 54 53 52 53 52 52 52 52 52 51 50 49 48 48 48
56 54 46 44 34 34 41 42 48 48 51 54 55 56 58 58 57 57 57 56 57 58 56 57 58 58 58 58 56 56 55 55 54 54 53 52 53 53 52 53 52 51 49 48 48 48 48 46 47
52 48 45 46 41 37 34 44 52 54 54 54 56 57 57 55 55 55 56 56 57 57 57 57 56 57 56 55 54 54 54 54 54 53 53 52 52 54 52 50 50 48 46 48 48 47 46 45 45
54 50 48 41 38 36 37 43 53 53 56 57 57 54 54 55 54 55 56 56 56 56 56 53 55 55 54 54 54 54 54 54 53 52 52 52 50 50 49 48 48 48 48 48 46 45 45 43 42

GFSSGP_sfc_temp_030.txt.gz
Temp
80 90 93 88 74 76 71 72 79 72 71 77 78 74 73 75 70 62 80 84 84 82 83 81 73 74 74 74 74 74 75 75 75 74 74 74 75 75 75 75 75 75 76 76 75 75 74 73 72
91 87 89 86 71 67 72 75 73 73 76 77 76 77 74 66 75 69 75 80 83 82 84 85 72 73 74 74 74 74 75 75 75 74 74 74 74 74 74 74 74 75 75 75 75 74 73 72 71
87 87 84 78 74 68 70 75 74 76 76 67 68 75 70 67 71 74 79 78 81 82 86 83 72 73 73 74 74 74 74 74 74 74 75 74 74 74 74 73 74 74 75 75 75 73 73 71 70
88 87 85 72 69 71 73 75 76 74 77 77 62 65 68 70 71 71 78 78 77 82 85 74 71 72 73 73 73 73 73 72 73 73 74 74 74 74 73 73 73 74 74 74 73 72 71 70 70
89 86 73 70 69 73 78 78 77 73 67 73 76 64 67 72 76 74 75 76 75 80 84 81 69 71 73 73 73 72 72 72 72 73 73 74 73 73 72 72 72 73 73 72 72 71 70 70 69
81 83 69 67 68 73 78 79 79 75 76 73 72 72 67 74 73 73 71 75 81 82 82 80 71 71 72 72 71 71 71 71 71 72 72 73 72 72 72 72 71 71 71 71 70 70 69 69 69
78 75 70 69 67 69 73 80 75 76 76 71 78 68 65 69 76 73 76 80 79 80 81 80 80 76 70 70 70 70 70 71 71 71 71 71 70 70 71 71 71 71 71 70 70 69 68 68 67
83 78 69 71 68 66 74 78 80 73 72 80 79 69 61 69 76 77 78 78 75 76 77 79 82 83 81 79 69 69 69 69 70 70 69 69 69 70 70 70 69 69 70 70 69 68 67 68 67
82 73 69 68 69 67 73 69 76 79 73 74 74 76 78 73 73 72 71 71 71 72 73 79 83 81 81 82 75 70 69 69 69 71 69 70 82 81 80 67 68 68 68 68 68 67 67 68 68
77 72 70 77 76 73 74 72 73 71 72 70 73 76 73 69 69 68 68 67 69 69 74 80 80 79 78 81 80 80 81 82 81 81 80 84 80 80 78 71 67 67 67 67 67 68 70 75 81
77 72 76 76 78 78 75 69 71 73 69 75 76 67 66 66 67 68 71 72 72 77 79 78 77 77 79 80 82 82 83 82 81 79 80 80 80 81 83 81 81 80 72 82 78 79 79 76 76
72 77 78 78 79 79 73 75 72 77 77 82 81 76 70 68 71 75 76 79 79 80 79 78 78 77 77 82 82 81 83 82 81 81 78 79 80 79 80 82 80 80 80 77 78 78 75 75 75
73 76 77 78 76 80 79 75 75 76 79 82 80 77 76 77 78 80 81 82 81 80 79 78 77 77 77 78 79 79 80 78 76 77 77 81 81 77 79 77 80 79 80 79 77 76 76 75 75
76 76 76 77 77 74 75 74 77 75 80 78 77 77 79 79 80 80 80 80 79 80 79 78 78 78 78 78 77 76 76 76 75 68 67 71 76 76 76 76 78 79 78 76 75 73 73 74 73
77 70 73 73 74 74 79 71 69 71 76 75 77 79 80 80 81 80 80 80 80 81 78 77 76 78 78 77 75 74 74 73 68 66 65 69 72 72 74 76 75 70 70 69 70 71 73 73 74
72 73 66 71 75 73 77 66 68 70 74 73 76 75 76 77 78 81 81 82 83 82 77 75 74 75 73 69 67 65 64 65 64 64 66 68 70 70 69 69 67 68 71 71 71 70 69 70 70
69 62 64 65 72 73 74 67 67 69 72 74 74 75 75 74 75 75 78 82 82 81 76 73 74 71 64 62 60 64 63 64 64 66 67 66 63 64 67 70 69 69 70 69 68 68 67 66 67
62 62 67 66 69 73 69 66 68 68 73 71 74 74 74 74 73 71 76 80 80 79 76 74 73 67 65 58 60 64 65 67 70 70 67 67 69 69 70 69 68 69 69 67 65 64 66 65 65
69 67 66 66 66 68 67 67 65 68 71 70 71 72 72 73 72 70 70 75 76 75 74 74 69 64 67 64 63 66 65 66 64 70 70 69 69 69 69 71 69 68 66 64 63 63 62 63 64
69 65 62 63 65 68 66 64 65 67 69 71 72 72 73 71 71 68 69 73 73 73 73 73 72 73 74 75 74 75 73 73 73 71 69 69 69 69 69 67 68 66 66 64 62 61 60 61 62
65 64 62 63 64 67 67 62 63 63 65 66 69 72 72 71 69 69 69 70 71 72 72 73 76 76 76 76 74 73 72 71 70 70 70 69 68 69 67 67 67 66 65 63 61 60 58 56 59
61 65 66 64 64 60 67 58 62 63 62 64 66 68 69 69 71 71 71 71 73 74 75 77 76 76 74 73 74 72 75 73 72 72 71 70 67 67 68 66 65 64 64 61 61 62 58 57 54
62 66 66 65 65 62 62 60 62 62 60 63 66 67 68 70 71 71 72 73 73 72 73 75 74 75 73 73 73 72 70 69 69 69 67 68 68 66 66 65 64 62 63 62 59 58 57 58 55
67 65 65 65 63 53 60 59 64 63 65 64 66 66 68 69 71 72 73 73 73 73 72 72 73 72 72 71 70 69 67 67 69 69 67 68 68 67 66 65 63 62 61 60 59 58 57 55 55
66 63 53 48 49 48 57 56 63 66 66 68 65 67 68 69 70 70 70 71 71 69 69 70 71 69 70 69 69 68 67 66 66 65 66 64 65 65 64 63 61 61 61 58 58 57 56 55 53
63 62 53 41 44 51 56 52 64 66 69 71 71 70 69 69 70 71 71 71 70 69 70 71 71 69 70 69 67 67 66 70 68 65 64 63 63 62 62 61 61 60 60 59 58 56 55 54 52
60 58 61 51 44 46 57 60 65 64 65 68 69 69 68 70 70 70 70 70 69 69 68 68 69 69 67 65 66 66 67 64 63 62 62 62 61 61 60 60 59 59 59 58 56 55 53 52 51
64 65 53 55 40 40 53 54 60 58 61 65 66 66 69 71 71 70 69 67 69 69 66 67 68 66 64 64 64 66 63 64 64 62 60 59 60 60 59 58 58 58 57 57 54 53 53 50 51
59 58 57 58 52 46 44 56 64 63 65 64 67 68 69 70 70 69 68 67 67 67 67 66 65 64 65 65 63 62 62 63 63 61 59 59 58 58 57 56 55 55 55 55 53 52 51 50 49
63 61 60 51 47 48 47 54 65 64 66 68 68 69 71 71 69 68 66 66 65 65 66 63 64 65 63 63 62 61 62 62 60 59 58 58 56 56 55 55 54 54 53 52 50 49 49 48 47

GFSSGP_sfc_temp_033.txt.gz
Temp
80 91 97 92 75 77 73 78 86 77 75 81 84 81 79 77 71 66 85 83 86 86 85 81 73 74 74 75 74 74 75 75 75 74 75 75 75 75 75 75 75 75 76 75 75 75 74 74 73
96 94 93 86 72 69 74 83 74 69 68 82 79 78 74 72 78 78 78 84 84 86 84 82 72 73 74 74 74 74 75 75 75 74 75 75 75 75 74 74 74 75 75 75 75 75 74 72 72
90 95 85 79 75 70 73 79 75 78 80 79 76 79 75 71 76 77 84 83 83 81 84 80 72 73 73 74 74 74 74 74 74 74 75 75 75 74 74 74 74 75 75 75 74 74 73 72 70
91 90 87 74 71 79 78 78 79 79 81 81 75 70 72 77 78 80 81 82 82 83 83 72 71 72 73 74 73 73 73 73 73 74 74 75 74 74 73 73 73 74 74 74 73 72 71 70 70
92 88 75 73 74 79 82 78 81 70 76 77 78 59 63 73 75 79 83 83 80 80 78 78 70 72 73 74 73 72 72 72 73 73 74 74 73 73 72 72 72 72 72 72 72 71 70 70 69
83 86 72 70 75 78 82 78 80 77 77 78 77 74 68 77 78 79 78 76 77 72 74 78 72 72 72 72 71 71 71 72 72 72 73 73 72 72 72 72 72 71 71 71 71 70 70 69 69
79 79 72 74 69 71 79 84 74 74 77 76 82 72 74 77 79 70 70 69 70 72 73 78 77 73 70 70 70 70 70 71 71 71 71 71 70 70 71 71 71 71 71 71 70 69 68 68 68
86 82 74 75 68 65 80 81 79 78 71 81 85 64 71 76 76 76 69 67 70 74 77 76 77 81 77 76 69 69 70 70 70 70 70 69 70 70 71 70 70 70 70 70 69 69 69 69 68
88 74 70 70 62 68 81 75 81 83 77 77 81 82 80 79 76 73 70 71 74 75 76 79 83 83 81 78 73 70 70 70 70 70 70 70 83 80 79 68 68 69 68 68 69 70 70 70 70
80 74 75 78 66 60 79 78 77 75 73 75 75 83 79 76 73 72 71 71 72 72 81 85 82 81 82 84 79 80 80 81 81 81 80 82 81 79 80 72 68 68 68 68 70 70 72 76 81
81 74 79 81 83 82 76 76 79 74 70 77 77 75 71 72 75 75 75 75 73 77 82 83 80 80 82 81 83 83 81 82 82 81 80 78 81 80 80 80 80 80 73 80 78 80 80 77 77
75 81 81 82 81 77 76 81 76 74 64 82 81 75 72 72 75 77 76 77 79 81 81 81 79 78 80 83 84 84 82 81 79 79 79 80 78 79 79 82 82 79 81 78 79 79 77 76 76
76 79 81 82 79 77 79 75 74 72 80 86 80 77 76 78 80 82 84 84 83 81 80 80 79 79 80 81 82 81 80 79 78 77 78 81 78 75 79 78 80 78 79 79 77 76 74 74 75
80 80 80 81 79 80 76 78 72 80 85 82 79 79 81 81 83 84 84 83 82 83 81 80 81 80 81 80 78 76 77 79 79 77 75 71 70 70 77 77 77 78 75 74 72 71 73 74 75
79 74 77 76 79 77 81 73 73 80 84 80 81 82 83 83 85 83 84 83 84 83 82 80 79 80 79 77 77 76 75 74 70 72 70 70 71 69 71 71 65 68 69 70 73 72 73 73 74
74 75 66 75 78 79 78 66 72 79 81 79 80 81 82 83 84 85 85 85 86 84 81 80 80 79 76 75 74 72 66 67 68 67 69 69 66 64 63 63 67 70 70 70 70 70 69 69 69
71 63 66 68 79 78 73 63 73 77 79 77 79 79 81 81 83 85 85 86 86 84 81 78 78 74 70 65 63 64 65 65 68 67 66 65 66 67 68 70 71 71 72 70 69 68 67 66 67
62 63 67 68 75 77 74 72 74 77 79 78 79 79 79 78 79 81 83 86 86 84 80 78 76 72 69 67 64 67 67 68 68 69 70 68 71 71 72 72 70 70 70 69 66 65 66 65 65
69 67 68 72 75 73 72 72 74 76 77 77 78 77 77 77 81 79 81 83 84 81 78 77 72 72 72 73 72 72 70 72 70 72 71 72 73 72 72 73 71 69 69 66 65 64 62 62 64
70 68 66 70 73 72 72 71 74 76 77 79 78 77 78 79 77 76 77 79 80 79 75 73 72 73 75 78 77 76 75 74 75 75 72 73 72 72 72 68 69 68 67 66 65 62 60 61 62
69 66 66 66 70 73 72 68 69 73 77 78 80 81 80 79 76 75 75 77 76 74 73 71 73 74 77 79 78 77 76 74 73 72 72 72 71 72 70 68 67 66 66 65 63 62 59 57 59
63 71 70 68 65 59 72 55 67 71 70 71 74 77 79 79 79 77 76 73 72 71 73 77 78 80 79 78 77 74 75 71 74 74 74 72 70 70 70 69 67 65 65 63 63 64 60 58 55
65 71 70 70 67 63 66 62 54 72 68 70 74 75 77 77 77 76 75 75 78 77 78 80 79 79 77 77 77 75 74 74 73 73 69 70 70 69 69 68 66 64 64 63 62 60 59 59 56
73 69 68 69 66 54 64 62 63 68 71 72 74 74 75 76 76 77 78 78 78 77 77 77 77 77 76 75 74 73 70 70 70 70 69 69 70 70 69 68 66 65 63 62 62 61 58 57 55
71 66 52 49 51 50 64 61 65 74 74 77 72 73 74 75 75 76 75 76 75 74 74 75 76 74 74 73 72 71 70 69 67 68 67 66 66 66 65 64 63 63 62 62 61 57 56 56 54
67 66 53 43 46 53 64 56 66 75 75 77 76 75 74 74 75 75 75 76 74 73 74 74 74 73 73 72 71 71 69 68 68 68 66 65 64 64 63 62 62 61 61 61 60 57 56 55 53
66 60 68 57 52 49 59 67 71 71 71 74 74 73 72 73 74 75 75 76 74 74 73 73 73 73 72 70 69 68 67 65 65 65 65 64 63 63 62 61 60 60 59 59 59 57 54 54 53
67 71 57 58 43 43 57 59 63 65 67 71 72 72 73 74 75 75 75 74 74 74 72 72 73 72 70 69 68 67 64 65 66 64 62 62 61 61 60 59 59 58 58 58 57 56 55 52 51
64 62 63 63 58 47 46 58 70 68 70 70 72 74 73 74 75 75 75 75 74 73 71 70 71 70 69 68 66 63 63 65 64 63 62 61 60 60 58 58 57 57 56 57 54 53 52 51 50
69 66 65 52 52 54 51 55 72 71 73 73 73 75 75 76 76 76 75 74 72 71 70 70 69 69 69 67 63 61 65 65 63 62 61 60 59 59 58 57 56 56 55 53 51 51 50 49 48

GFSSGP_sfc_temp_036.txt.gz
Temp
77 83 88 86 70 71 66 72 78 68 72 79 83 78 72 73 67 58 81 82 81 79 77 76 73 74 74 74 74 74 75 75 75 74 74 74 74 74 74 74 75 75 76 76 75 75 74 74 73
89 91 90 81 66 62 68 68 69 71 72 72 75 79 75 67 77 74 76 81 82 81 79 76 73 73 74 74 74 74 75 74 74 74 74 74 74 74 74 74 74 75 75 75 75 75 74 73 72
83 91 79 73 68 63 68 73 74 77 79 71 70 76 72 67 74 75 79 83 84 81 79 75 72 72 73 73 73 73 73 73 74 74 75 75 74 74 74 73 73 74 75 75 75 74 73 71 70
86 85 81 68 66 74 73 73 78 78 79 79 78 68 75 78 76 79 77 83 81 81 77 71 70 72 73 73 73 73 73 73 73 73 74 74 74 73 73 72 73 73 74 74 73 72 71 70 69
89 82 68 67 70 77 82 79 78 71 70 76 77 66 68 73 78 78 78 79 77 73 72 73 70 72 73 73 73 72 72 72 73 73 73 73 73 73 72 72 72 72 72 72 72 71 70 69 69
77 79 65 64 70 74 82 78 70 63 67 79 75 72 71 73 71 76 73 73 73 70 71 72 72 72 71 72 71 71 71 71 72 72 72 72 72 72 71 71 71 71 71 71 70 70 69 69 70
74 73 67 70 71 74 77 79 70 72 73 76 82 67 71 73 73 68 70 67 68 69 69 70 72 71 70 69 69 69 70 70 70 70 70 70 70 70 71 71 71 71 71 70 70 69 69 69 69
81 76 69 72 71 68 76 69 65 63 68 80 75 70 69 72 69 68 65 66 66 67 68 69 72 73 70 70 68 69 69 69 69 70 70 69 70 70 70 70 70 70 70 70 70 70 70 70 69
87 70 66 70 70 60 66 68 76 82 77 77 72 74 78 77 71 67 63 65 64 66 68 70 74 73 71 70 70 69 69 69 69 69 69 68 72 71 72 68 68 69 69 70 70 71 70 69 70
77 68 70 79 62 57 59 55 77 77 75 75 75 69 75 74 72 64 63 63 64 64 67 73 74 74 72 76 71 70 72 71 72 72 70 68 71 70 73 68 68 68 69 69 70 71 71 72 69
78 69 78 79 70 65 60 68 79 75 70 76 74 70 70 72 70 70 67 69 66 64 70 75 72 73 74 73 74 74 73 73 73 72 72 73 73 71 67 66 67 65 67 68 68 70 69 69 67
73 79 80 81 71 68 65 76 71 72 70 76 77 73 72 72 72 71 69 70 73 76 75 75 74 73 72 75 75 74 73 69 70 72 74 71 70 71 70 70 70 69 68 68 68 66 66 66 67
75 78 81 79 79 78 79 72 65 69 77 76 75 72 73 77 75 77 75 76 77 75 74 73 73 73 73 73 73 72 69 72 70 72 72 70 69 68 69 69 69 68 67 64 63 63 64 65 67
79 79 78 78 78 79 72 66 63 64 70 75 74 74 76 78 79 79 79 78 77 76 74 73 74 73 75 72 70 68 69 70 70 69 68 68 66 66 67 65 63 64 63 63 63 63 63 63 64
80 73 75 77 77 74 66 63 65 76 79 75 75 76 78 80 80 80 80 78 78 77 76 74 73 74 72 72 71 69 69 68 66 67 67 67 66 64 63 62 61 61 62 63 63 63 62 61 63
72 72 63 73 77 76 68 54 71 80 78 76 77 78 78 80 81 81 80 80 80 78 75 75 77 73 71 70 70 68 65 65 65 64 65 63 63 63 61 61 61 61 62 62 61 59 58 58 57
68 58 63 67 77 73 67 57 73 79 78 75 77 77 78 78 80 81 81 81 81 78 76 74 73 69 66 63 63 63 64 65 65 63 63 63 63 63 62 61 61 62 62 60 60 57 56 54 55
56 61 64 64 72 74 67 65 73 77 77 76 77 77 77 77 79 80 81 81 82 79 75 75 71 67 65 65 65 66 65 65 64 64 64 64 65 65 64 63 61 61 61 59 57 55 55 53 53
67 64 64 70 76 71 66 69 72 76 76 75 75 75 75 76 77 79 79 78 78 75 74 73 68 66 66 67 66 66 64 65 64 66 66 66 66 66 64 63 62 61 59 57 57 54 52 51 52
68 64 62 71 74 72 71 69 73 75 75 77 75 74 75 74 76 75 76 77 76 73 72 69 69 67 70 72 70 69 67 66 67 67 66 66 66 66 65 61 60 59 57 56 55 53 50 50 51
66 64 63 65 71 73 69 66 69 74 77 78 78 78 78 76 74 73 75 74 74 72 71 68 69 69 70 70 72 70 69 66 65 64 63 65 66 66 64 62 60 58 56 54 53 52 51 47 49
61 69 68 68 64 55 66 51 63 70 71 75 76 76 76 77 77 75 73 73 73 70 69 70 69 72 73 72 70 67 67 64 65 64 65 64 64 64 65 63 60 57 56 54 53 56 51 49 46
63 68 67 68 64 59 60 54 58 67 65 70 73 75 77 78 78 76 74 75 72 68 66 69 71 73 72 72 70 68 67 65 65 63 62 63 61 63 63 62 59 57 55 54 53 52 51 50 47
72 68 68 67 63 43 53 54 55 59 64 67 73 75 76 77 76 77 76 74 72 71 71 69 70 73 72 71 70 68 65 64 62 62 60 61 60 60 60 60 56 55 54 53 52 52 51 48 47
70 64 49 38 39 44 64 59 58 67 70 57 70 74 75 75 74 75 72 72 72 72 72 71 73 71 70 69 68 66 65 63 62 61 59 59 58 56 55 55 54 53 53 53 52 50 50 48 46
57 64 49 36 31 47 63 55 63 73 75 78 76 75 74 73 73 73 73 72 72 71 71 71 72 70 69 67 66 65 64 61 61 59 59 57 55 55 56 54 54 53 53 51 51 49 48 49 45
65 59 67 54 50 45 55 63 69 73 72 74 73 73 72 72 73 73 73 72 70 70 68 68 70 70 68 66 64 62 61 60 57 59 59 57 56 58 54 53 52 52 51 50 49 47 47 47 44
66 70 55 57 41 40 54 58 54 64 67 71 71 70 71 72 73 72 73 71 71 70 68 68 69 69 68 65 62 61 60 59 59 59 57 56 55 55 53 52 51 51 50 50 48 46 46 45 43
63 59 62 62 57 43 41 52 68 67 70 69 71 72 71 71 72 72 73 73 72 71 69 68 69 69 65 64 62 59 59 58 59 58 57 55 54 54 53 52 51 50 50 49 46 45 46 45 43
68 63 64 48 49 52 47 49 72 70 73 72 72 74 73 73 73 73 73 72 71 69 68 67 66 66 65 64 61 58 59 58 57 58 57 55 53 53 52 52 51 51 50 47 46 44 46 43 42

GFSSGP_sfc_temp_039.txt.gz
Temp
65 68 67 67 54 50 48 56 64 62 63 68 75 68 63 65 62 55 72 73 72 72 74 74 73 74 74 74 74 74 74 75 74 74 74 74 74 74 74 74 75 75 76 76 76 75 75 75 73
72 78 69 62 49 41 49 65 59 63 67 69 69 69 66 62 70 68 69 72 73 72 73 73 73 73 74 74 74 74 75 74 74 74 74 74 74 74 74 74 74 75 75 76 75 75 74 73 72
72 78 60 54 48 47 49 61 64 68 71 68 65 69 67 64 71 71 75 74 72 72 72 73 72 73 73 73 73 73 73 73 74 74 74 74 74 74 74 73 73 74 75 75 75 74 73 72 71
72 67 64 51 49 60 62 63 69 69 71 72 68 60 67 70 71 73 75 75 74 72 72 71 71 72 73 73 73 73 72 72 73 73 74 74 74 73 73 72 73 73 74 74 73 73 72 71 70
69 63 53 48 55 63 69 67 68 66 66 69 68 60 59 67 72 72 71 73 70 70 71 72 70 71 72 73 73 72 72 72 72 72 73 73 73 73 72 71 71 72 73 72 72 71 71 70 70
59 60 48 48 59 67 66 65 63 63 65 66 65 63 60 67 67 67 69 68 69 69 70 72 72 71 71 71 71 71 71 71 71 71 72 72 72 71 71 71 71 71 71 71 70 70 70 70 70
60 53 50 55 59 61 60 66 62 60 64 67 71 61 62 64 65 66 66 67 67 68 69 69 69 70 69 69 69 69 70 70 70 70 70 70 70 70 71 71 71 71 70 70 70 70 70 70 70
67 59 53 58 60 53 61 62 65 67 63 73 68 57 57 60 63 66 66 66 65 66 66 67 67 69 68 69 68 69 69 69 69 69 69 69 69 69 70 69 70 70 70 71 71 71 70 70 70
67 52 51 57 58 56 63 62 64 68 66 69 67 65 62 65 65 64 63 64 63 65 66 66 67 68 66 67 69 69 69 69 69 69 69 67 67 68 68 68 69 69 69 70 71 71 69 68 68
60 50 57 66 61 57 59 62 62 63 63 61 62 66 65 65 63 61 61 61 61 62 65 66 67 67 68 71 66 66 69 67 67 67 67 66 66 66 68 67 68 69 69 70 70 70 70 67 64
62 58 67 69 65 61 58 59 65 62 56 66 63 59 62 64 62 63 62 63 62 64 66 67 69 69 69 69 67 67 67 66 66 66 66 65 67 64 63 62 64 62 67 64 66 65 64 64 62
57 68 72 65 66 65 62 67 65 62 66 69 70 66 66 62 63 64 63 62 62 64 67 71 71 69 69 69 68 68 66 65 65 67 68 66 64 63 63 62 65 62 62 60 60 60 62 62 63
64 70 71 69 67 64 68 63 65 62 66 70 70 69 67 66 65 67 65 64 64 65 71 71 70 71 70 67 67 68 65 66 66 66 66 64 63 63 63 61 60 60 61 60 59 60 60 60 61
71 71 72 66 68 67 64 62 63 66 67 70 70 65 65 67 68 69 68 67 69 70 70 68 69 68 69 66 66 65 65 64 64 63 63 64 63 61 60 59 59 59 59 59 59 58 58 57 59
71 64 67 65 65 63 65 60 56 68 69 68 67 67 69 69 70 70 72 71 70 70 70 67 67 67 67 66 66 65 64 64 63 62 62 62 62 59 58 57 57 58 58 58 58 57 56 55 58
63 62 55 67 66 65 66 51 62 67 65 66 67 68 69 69 73 74 73 72 71 70 69 68 72 67 65 64 62 62 61 60 60 60 59 59 60 59 57 57 57 57 57 56 55 54 53 52 51
56 50 55 62 68 65 63 54 63 66 67 66 66 66 67 68 71 73 74 73 72 71 70 67 67 64 61 60 61 61 60 59 58 58 57 59 59 59 57 56 56 57 56 54 55 53 51 49 49
49 53 53 57 62 62 60 56 60 66 67 66 64 64 66 66 69 72 73 74 71 67 70 66 64 61 59 60 59 58 58 57 57 57 57 59 60 60 57 57 57 57 55 53 53 51 50 49 48
61 56 56 60 66 60 60 59 60 64 63 62 62 63 64 67 69 73 71 71 69 67 68 65 62 60 60 59 58 58 56 56 57 58 60 60 60 61 57 56 56 55 53 52 52 50 49 48 47
59 56 56 63 67 62 60 58 62 64 64 65 64 64 65 65 67 68 68 67 69 67 65 64 63 62 62 62 61 61 59 58 58 59 59 60 60 60 59 56 54 54 53 51 50 49 47 46 46
59 57 59 57 61 60 57 53 56 64 67 68 69 69 70 67 66 67 69 64 67 67 64 63 62 62 64 64 64 60 59 57 56 56 56 59 60 60 58 57 55 54 52 50 49 48 47 44 45
55 64 62 61 56 47 57 41 53 59 63 67 67 67 67 68 68 69 67 64 65 62 64 66 64 65 65 65 65 61 57 57 56 56 56 57 59 60 60 58 55 53 51 50 49 51 47 45 43
58 64 61 59 55 51 51 45 49 61 58 64 62 64 65 68 67 67 66 66 64 64 64 65 65 67 65 65 67 61 57 57 56 56 56 56 57 58 59 55 52 51 50 49 48 47 47 46 43
66 61 60 55 50 40 54 50 45 55 62 65 68 64 66 64 69 68 67 65 63 65 65 64 62 63 65 67 63 60 59 57 57 57 56 57 54 52 53 53 50 49 49 48 47 46 46 45 44
60 53 39 35 34 35 55 50 51 60 64 65 65 66 64 64 66 65 64 64 63 60 60 61 62 63 65 65 60 58 57 56 55 53 51 51 53 51 50 52 50 48 48 48 47 45 44 44 42
57 53 39 31 31 35 52 46 53 65 66 65 66 64 63 63 64 64 65 64 63 63 62 63 65 66 61 60 59 58 57 54 53 52 51 51 52 53 52 51 50 48 48 47 46 44 43 43 41
57 50 57 43 39 33 43 53 59 64 62 61 57 61 61 61 62 62 62 63 63 65 61 63 63 62 60 59 56 55 54 53 52 52 53 53 52 55 51 50 50 49 47 48 46 42 42 42 41
59 61 46 44 34 33 44 45 46 56 60 59 60 60 61 62 62 62 62 61 61 61 61 60 60 60 59 57 55 55 53 53 53 54 54 54 53 53 50 50 48 47 47 46 44 42 42 42 40
55 51 53 52 44 34 29 40 55 58 60 60 59 62 61 61 61 61 61 62 62 61 60 60 60 58 56 57 55 52 52 53 55 55 54 53 52 53 50 51 48 47 46 45 43 42 43 41 39
61 55 53 36 41 40 33 39 59 60 61 62 62 64 62 64 63 62 62 62 62 61 60 59 59 58 60 58 55 52 53 56 56 55 54 53 52 51 51 49 48 48 46 45 43 42 41 40 39

GFSSGP_sfc_temp_042.txt.gz
Temp
63 65 65 65 52 47 43 51 61 58 59 65 70 65 61 62 60 54 68 70 72 73 74 73 73 74 74 74 74 74 74 74 74 74 74 74 74 74 74 74 74 75 76 76 76 76 76 75 74
67 71 65 57 46 40 45 57 58 61 66 67 67 68 62 61 67 64 65 71 74 73 74 72 73 73 73 73 74 74 74 74 74 74 74 74 74 74 74 74 74 75 76 76 76 76 75 74 73
69 73 59 51 42 43 45 58 61 64 67 65 62 66 65 63 69 68 69 72 73 72 73 73 72 72 73 73 73 73 73 73 73 74 74 74 74 74 74 73 73 74 75 76 76 75 74 72 72
67 63 59 49 47 52 59 59 63 65 66 68 64 58 64 68 69 72 71 72 72 71 72 70 71 72 72 73 73 73 73 72 73 73 74 74 74 73 73 72 73 74 74 75 74 74 72 71 71
63 56 47 45 50 61 61 62 63 63 63 65 64 56 58 65 70 71 69 72 70 70 71 70 69 71 72 73 73 72 72 72 72 72 73 73 73 73 72 71 72 72 73 73 73 72 72 71 70
57 54 45 45 55 58 60 62 61 61 64 63 61 59 57 65 66 67 69 69 70 69 70 70 72 71 71 72 71 71 71 71 71 71 72 72 72 71 71 71 71 71 71 71 71 70 71 71 70
53 50 48 50 56 55 60 62 58 60 63 63 65 55 57 62 65 67 66 66 67 67 66 66 69 70 69 69 69 69 70 70 70 70 70 70 70 70 71 71 71 71 71 71 70 70 70 70 69
59 55 46 49 56 54 61 62 64 65 65 70 66 54 52 61 65 66 65 64 63 63 65 65 66 67 67 68 68 68 69 69 69 70 69 69 69 69 70 69 70 70 71 71 71 70 70 69 69
63 53 49 51 54 55 61 59 62 68 66 63 63 61 62 64 65 64 63 62 61 63 64 65 65 66 65 66 68 68 69 69 69 69 68 66 65 66 67 67 69 70 70 70 70 69 68 67 66
58 52 54 63 59 56 59 59 63 62 61 57 58 61 62 64 63 61 61 60 60 60 62 65 65 65 66 70 66 65 69 66 66 66 65 64 64 64 66 67 68 69 69 69 68 68 67 65 61
58 56 62 65 62 59 57 56 61 60 57 60 57 57 58 61 63 61 61 62 61 63 63 65 66 66 66 67 63 62 62 62 63 64 64 64 65 63 61 60 61 60 64 63 63 62 61 61 60
57 66 65 65 61 58 56 60 61 58 61 68 64 61 61 60 61 62 61 61 62 62 64 65 67 66 64 65 63 63 63 63 63 64 65 63 61 60 62 60 60 60 59 58 58 58 59 59 60
61 65 66 64 63 61 66 62 61 57 65 67 64 64 61 61 62 64 64 64 63 62 64 65 68 65 65 64 63 64 63 63 63 63 63 64 62 61 60 58 59 58 58 58 57 57 57 57 58
66 66 63 64 64 64 63 59 62 60 66 63 63 62 63 63 63 63 63 61 63 65 65 68 68 66 66 64 64 63 63 63 62 61 62 62 60 58 59 57 57 57 57 57 56 55 54 53 55
66 61 61 62 58 62 64 58 58 63 65 65 65 64 65 65 65 62 63 63 65 65 69 67 67 66 64 64 65 62 63 63 61 60 61 61 60 58 57 56 56 56 56 56 54 53 53 52 54
60 61 50 59 62 65 62 53 62 65 63 61 64 65 65 65 65 65 66 66 67 69 69 67 69 65 64 62 61 61 60 60 59 57 57 59 58 58 56 55 55 55 54 53 52 52 51 50 49
53 47 51 55 64 64 59 53 61 64 63 60 61 62 64 65 67 67 68 69 69 69 68 64 65 63 60 60 60 59 58 58 57 56 56 57 58 57 56 55 54 54 53 52 53 50 50 47 47
49 51 50 52 58 59 57 55 58 60 63 61 59 59 65 65 66 70 69 69 68 65 68 65 64 60 59 59 58 57 57 56 56 55 56 58 58 58 56 55 54 53 52 51 50 49 48 47 46
56 54 52 54 61 58 58 56 58 60 60 58 59 59 63 65 69 70 69 69 66 65 64 63 60 58 60 58 56 55 55 54 55 55 57 58 58 58 55 54 53 52 51 50 50 48 47 45 45
57 55 52 57 62 59 55 55 56 58 61 63 62 61 62 63 66 67 68 67 65 64 63 63 62 60 60 60 57 57 55 55 56 56 56 58 57 56 55 53 52 52 50 49 49 47 45 44 44
56 51 52 53 57 56 55 52 53 60 61 62 65 66 66 65 64 64 65 64 65 63 62 62 61 60 61 60 59 57 57 55 54 53 53 55 57 57 56 54 52 51 50 49 47 46 45 43 43
50 59 59 58 51 44 52 40 48 56 59 62 62 62 63 66 66 65 64 63 64 61 63 63 62 61 61 61 60 58 59 56 54 53 54 54 56 57 57 55 52 50 49 48 47 48 45 43 41
55 59 57 56 51 47 47 43 47 55 55 59 60 62 64 65 66 65 63 66 65 61 61 61 62 63 65 62 62 60 57 56 53 53 53 53 54 55 55 52 50 49 47 47 48 48 44 43 42
63 57 54 50 48 39 47 45 44 49 60 63 62 62 62 63 65 66 62 65 62 61 61 61 63 65 65 62 61 60 58 54 53 52 53 52 51 50 51 51 49 49 47 47 45 43 43 42 41
58 50 36 34 33 34 50 46 49 56 60 62 61 60 60 62 61 59 59 61 60 60 60 61 64 63 62 60 60 58 57 56 56 55 51 49 48 49 49 50 50 49 49 46 45 44 42 41 39
51 49 37 33 30 36 48 41 49 61 64 65 61 61 60 59 62 61 61 60 61 61 61 62 62 60 59 59 58 58 57 54 51 53 53 52 51 51 51 50 51 49 48 46 43 43 42 40 39
53 47 53 40 36 31 41 49 57 60 60 58 56 59 56 56 60 61 61 60 60 59 59 60 60 60 57 56 55 56 55 55 53 52 53 52 51 52 50 50 49 49 48 46 44 42 40 39 39
57 58 45 41 33 31 40 43 44 52 56 56 54 56 57 58 58 58 59 59 59 60 58 58 60 59 58 57 56 55 54 54 53 53 52 52 51 51 51 50 49 49 47 44 42 41 41 40 38
51 49 49 48 40 33 29 38 52 55 57 56 56 58 57 58 58 59 59 60 60 59 58 57 61 60 59 57 52 52 51 51 54 53 52 51 50 51 50 49 48 48 44 44 42 41 42 40 39
53 51 50 34 39 37 31 38 55 56 57 57 58 59 58 60 60 60 60 60 59 60 59 58 59 57 56 55 54 52 54 55 54 53 52 51 51 51 48 47 47 46 45 43 42 40 40 39 38